Regional Weather Roundup
Issued by NWS

Home | Current Version | Previous Version | Graphics & Text | Print | Product List | Glossary On
Versions: 1 2 3 4 5 6 7 8 9 10 11 12 13 14 15 16 17 18 19 20 21 22 23 24 25 26 27 28 29 30 31 32 33 34 35 36 37 38 39 40 41 42 43 44 45 46 47 48 49 50
000
ASUS45 KABQ 091110
RWRNM
NEW MEXICO REGIONAL WEATHER ROUNDUP
NATIONAL WEATHER SERVICE ALBUQUERQUE NM
400 AM MST TUE FEB 09 2016

NOTE: "FAIR" MEANS FEW OR NO CLOUDS BELOW 12,000 FEET AGL WITH NO
       SIGNIFICANT WEATHER OR OBSTRUCTIONS TO VISION.

      THIS PRODUCT IS RELEASED AS TWO VERSIONS.  ONE VERSION NEAR
      THE TOP OF THE HOUR CONTAINING PRELIMINARY DATA FROM ALBUQUERQUE
      AND OTHER STATIONS.  A FINAL VERSION WITH ADDITIONAL DATA IS
      ISSUED ABOUT 10 MINUTES AFTER THE HOUR.

NMZ501-503-504-510>518-091200-
NORTHWEST PLATEAU/NORTHCENTRAL MOUNTAINS

CITY           SKY/WX    TMP DP  RH WIND       PRES   REMARKS
FARMINGTON     CLOUDY    22  19  89 NE7       30.41S WCI  13
LOS ALAMOS     CLOUDY    36  20  51 CALM      30.39F
SANTA FE       CLOUDY    27  19  72 CALM      30.37F
TAOS           CLOUDY    19  14  79 N7        30.41S WCI  10
ANGEL FIRE     FAIR       2  -1  85 CALM      30.41S

$$
NMZ402-403-502-505>509-091200-
WESTCENTRAL MOUNTAINS/SOUTHWEST MOUNTAINS

CITY           SKY/WX    TMP DP  RH WIND       PRES   REMARKS
GALLUP         CLEAR     19  16  88 CALM      30.43F
GRANTS         CLEAR     19  15  87 W7        30.43F WCI   9
SILVER CITY      N/A     34  19  55 N13       30.36F WCI  25

$$
NMZ407-409-411-412-091200-
SOUTHERN DESERTS

CITY           SKY/WX    TMP DP  RH WIND       PRES   REMARKS
LORDSBURG      FAIR      30  18  59 E3        30.34R
DEMING         PTCLDY    30  16  56 N5        30.34F WCI  25
LAS CRUCES     CLEAR     32  18  55 W5        30.35F WCI  27
HOLLOMAN AFB   CLOUDY    28  13  54 NE5       30.34F WCI  23
ALAMOGORDO     CLOUDY    32  16  51 CALM      30.35F
T OR C         CLEAR     37  20  50 NW7       30.35S WCI  32

$$
NMZ519>523-091200-
CENTRAL VALLEYS/CENTRAL HIGHLANDS

CITY           SKY/WX    TMP DP  RH WIND       PRES   REMARKS
ALBUQUERQUE    CLOUDY    32  21  64 CALM      30.39F
DOUBLE EAGLE   CLOUDY    23  17  77 W3        30.39F
MORIARTY ARPT  FAIR      17  13  86 W3        30.39F
CLINES CORNERS CLOUDY    28  18  66 NW10      30.34F WCI  19
BELEN          FAIR      26  17  69 CALM      30.39F
SOCORRO        FAIR      32  18  56 N6        30.38S WCI  27

$$
NMZ524>526-539-540-091200-
SOUTHCENTRAL MOUNTAINS

CITY           SKY/WX    TMP DP  RH WIND       PRES   REMARKS
RUIDOSO          N/A     34  16  47 SW5       30.39R WCI  30

$$
NMZ527>531-091200-
NORTHEAST HIGHLANDS/NORTHEAST PLAINS

CITY           SKY/WX    TMP DP  RH WIND       PRES   REMARKS
LAS VEGAS      CLOUDY    28  15  58 S10       30.34F WCI  19
RATON          CLOUDY    20  15  81 NE8       30.34S WCI  10
CLAYTON        CLOUDY    36  20  52 W13       30.35R WCI  27

$$
NMZ532>537-091200-
EASTCENTRAL PLAINS

CITY           SKY/WX    TMP DP  RH WIND       PRES   REMARKS
TUCUMCARI      CLOUDY    25  16  68 W9        30.35F WCI  15
CANNON AFB     CLEAR     26  14  62 NW6       30.36F WCI  19
CLOVIS AIRPORT CLEAR     25  14  63 W8        30.38S WCI  16

$$
NMZ028-029-538-091200-
SOUTHEAST PLAINS

CITY           SKY/WX    TMP DP  RH WIND       PRES   REMARKS
ROSWELL        CLEAR     25  15  66 NW3       30.38F
ARTESIA        CLOUDY    25  18  74 NW8       30.40S WCI  16
CARLSBAD       CLEAR     26  16  65 N3        30.39R
HOBBS          CLOUDY    25  16  68 NW8       30.39S WCI  16


$$



USA.gov is the U.S. government's official web portal to all federal, state and local government web resources and services.